timestamp,wind_dir_avg,wind_spd_max_dir,wind_spd_avg,wind_spd_gust,battery_voltage,lat,long
2018-04-10 00:00:00+00:00,266.0,272.0,15.89,19.51,,47.59359,-54.27349
2018-04-10 00:10:00+00:00,268.0,269.0,15.99,18.65,,47.59359,-54.27349
2018-04-10 00:20:00+00:00,269.0,269.0,14.06,16.43,,47.59359,-54.27349
2018-04-10 00:30:00+00:00,273.0,274.0,16.43,19.13,,47.59359,-54.27349
2018-04-10 00:40:00+00:00,270.0,273.0,14.36,16.08,,47.59359,-54.27349
2018-04-10 00:50:00+00:00,279.0,287.0,14.53,17.11,,47.59359,-54.27349
2018-04-10 01:00:00+00:00,271.0,272.0,15.69,16.76,,47.59359,-54.27349
2018-04-10 01:10:00+00:00,276.0,274.0,15.82,18.37,,47.59359,-54.27349
2018-04-10 01:20:00+00:00,273.0,278.0,14.61,18.01,,47.59359,-54.27349
2018-04-10 01:30:00+00:00,273.0,272.0,14.46,16.6,,47.59359,-54.27349
2018-04-10 01:40:00+00:00,269.0,260.0,14.86,18.57,,47.59359,-54.27349
2018-04-10 01:50:00+00:00,276.0,273.0,13.23,15.39,,47.59359,-54.27349
2018-04-10 02:00:00+00:00,271.0,273.0,12.37,14.56,,47.59359,-54.27349
2018-04-10 02:10:00+00:00,274.0,274.0,13.11,14.94,,47.59359,-54.27349
2018-04-10 02:20:00+00:00,272.0,268.0,14.17,15.92,,47.59359,-54.27349
2018-04-10 02:30:00+00:00,275.0,282.0,12.93,15.3,,47.59359,-54.27349
2018-04-10 02:40:00+00:00,271.0,267.0,12.12,14.23,,47.59359,-54.27349
2018-04-10 02:50:00+00:00,273.0,272.0,11.47,13.29,,47.59359,-54.27349
2018-04-10 03:00:00+00:00,273.0,276.0,12.72,14.9,,47.59359,-54.27349
2018-04-10 03:10:00+00:00,270.0,269.0,10.93,12.81,,47.59359,-54.27349
2018-04-10 03:20:00+00:00,274.0,272.0,12.77,15.49,,47.59359,-54.27349
2018-04-10 03:30:00+00:00,272.0,274.0,11.43,14.61,,47.59359,-54.27349
2018-04-10 03:40:00+00:00,278.0,278.0,12.56,13.65,,47.59359,-54.27349
2018-04-10 03:50:00+00:00,269.0,248.0,11.99,13.63,,47.59359,-54.27349
2018-04-10 04:00:00+00:00,272.0,274.0,10.93,13.13,,47.59359,-54.27349
2018-04-10 04:10:00+00:00,275.0,276.0,11.57,13.65,,47.59359,-54.27349
2018-04-10 04:20:00+00:00,278.0,276.0,10.11,12.57,,47.59359,-54.27349
2018-04-10 04:30:00+00:00,282.0,282.0,11.48,12.9,,47.59359,-54.27349
2018-04-10 04:40:00+00:00,279.0,283.0,9.86,11.51,,47.59359,-54.27349
2018-04-10 04:50:00+00:00,277.0,280.0,11.34,13.3,,47.59359,-54.27349
2018-04-10 05:00:00+00:00,285.0,277.0,10.7,12.91,,47.59359,-54.27349
2018-04-10 05:10:00+00:00,268.0,268.0,10.15,11.35,,47.59359,-54.27349
2018-04-10 05:20:00+00:00,283.0,281.0,10.46,11.76,,47.59359,-54.27349
2018-04-10 05:30:00+00:00,276.0,272.0,12.16,14.21,,47.59359,-54.27349
2018-04-10 05:40:00+00:00,280.0,279.0,11.18,12.98,,47.59359,-54.27349
2018-04-10 05:50:00+00:00,285.0,283.0,10.6,13.12,,47.59359,-54.27349
2018-04-10 06:00:00+00:00,285.0,279.0,11.01,13.38,,47.59359,-54.27349
2018-04-10 06:10:00+00:00,282.0,287.0,10.29,12.35,,47.59359,-54.27349
2018-04-10 06:20:00+00:00,281.0,283.0,10.45,12.72,,47.59359,-54.27349
2018-04-10 06:30:00+00:00,275.0,275.0,9.24,10.29,,47.59359,-54.27349
2018-04-10 06:40:00+00:00,291.0,294.0,13.14,15.27,,47.59359,-54.27349
2018-04-10 06:50:00+00:00,279.0,278.0,10.12,11.49,,47.59359,-54.27349
2018-04-10 07:00:00+00:00,276.0,274.0,11.13,13.02,,47.59359,-54.27349
2018-04-10 07:10:00+00:00,282.0,277.0,10.83,12.53,,47.59359,-54.27349
2018-04-10 07:20:00+00:00,276.0,279.0,8.68,9.6,,47.59359,-54.27349
2018-04-10 07:30:00+00:00,274.0,273.0,9.84,10.98,,47.59359,-54.27349
2018-04-10 07:40:00+00:00,280.0,286.0,10.28,11.68,,47.59359,-54.27349
2018-04-10 07:50:00+00:00,281.0,276.0,10.7,13.07,,47.59359,-54.27349
2018-04-10 08:00:00+00:00,278.0,287.0,10.06,11.74,,47.59359,-54.27349
2018-04-10 08:10:00+00:00,276.0,276.0,11.4,13.72,,47.59359,-54.27349
2018-04-10 08:20:00+00:00,269.0,267.0,10.19,11.78,,47.59359,-54.27349
2018-04-10 08:30:00+00:00,269.0,271.0,9.47,10.8,,47.59359,-54.27349
2018-04-10 08:40:00+00:00,261.0,255.0,9.57,12.06,,47.59359,-54.27349
2018-04-10 08:50:00+00:00,265.0,261.0,10.84,12.9,,47.59359,-54.27349
2018-04-10 09:00:00+00:00,265.0,266.0,10.96,12.47,,47.59359,-54.27349
2018-04-10 09:10:00+00:00,270.0,268.0,10.61,12.1,,47.59359,-54.27349
2018-04-10 09:20:00+00:00,277.0,274.0,11.25,13.15,,47.59359,-54.27349
2018-04-10 09:30:00+00:00,277.0,291.0,9.83,10.88,,47.59359,-54.27349
2018-04-10 09:40:00+00:00,267.0,267.0,9.88,11.39,,47.59359,-54.27349
2018-04-10 09:50:00+00:00,275.0,277.0,10.91,12.16,,47.59359,-54.27349
2018-04-10 10:00:00+00:00,267.0,269.0,10.25,12.11,,47.59359,-54.27349
2018-04-10 10:10:00+00:00,270.0,272.0,10.51,12.91,,47.59359,-54.27349
2018-04-10 10:20:00+00:00,278.0,276.0,10.59,11.46,,47.59359,-54.27349
2018-04-10 10:30:00+00:00,276.0,281.0,11.58,13.47,,47.59359,-54.27349
2018-04-10 10:40:00+00:00,275.0,276.0,10.43,12.94,,47.59359,-54.27349
2018-04-10 10:50:00+00:00,271.0,276.0,10.6,12.49,,47.59359,-54.27349
2018-04-10 11:00:00+00:00,279.0,275.0,11.95,16.32,,47.59359,-54.27349
2018-04-10 11:10:00+00:00,282.0,280.0,12.08,14.43,,47.59359,-54.27349
2018-04-10 11:20:00+00:00,284.0,285.0,11.41,13.39,,47.59359,-54.27349
2018-04-10 11:30:00+00:00,292.0,289.0,12.1,14.43,,47.59359,-54.27349
2018-04-10 11:40:00+00:00,292.0,296.0,12.71,17.24,,47.59359,-54.27349
2018-04-10 11:50:00+00:00,289.0,282.0,13.11,15.1,,47.59359,-54.27349
2018-04-10 12:00:00+00:00,289.0,295.0,13.12,16.22,,47.59359,-54.27349
2018-04-10 12:10:00+00:00,295.0,290.0,11.32,13.49,,47.59359,-54.27349
2018-04-10 12:20:00+00:00,300.0,303.0,13.32,14.6,,47.59359,-54.27349
2018-04-10 12:30:00+00:00,284.0,285.0,12.93,15.86,,47.59359,-54.27349
2018-04-10 12:40:00+00:00,285.0,287.0,14.22,16.4,,47.59359,-54.27349
2018-04-10 12:50:00+00:00,292.0,286.0,11.51,13.56,,47.59359,-54.27349
2018-04-10 13:00:00+00:00,288.0,297.0,15.27,16.91,,47.59359,-54.27349
2018-04-10 13:10:00+00:00,282.0,280.0,15.25,17.27,,47.59359,-54.27349
2018-04-10 13:20:00+00:00,278.0,290.0,13.48,16.13,,47.59359,-54.27349
2018-04-10 13:30:00+00:00,290.0,291.0,11.27,14.0,,47.59359,-54.27349
2018-04-10 13:40:00+00:00,297.0,298.0,12.49,14.07,,47.59359,-54.27349
2018-04-10 13:50:00+00:00,279.0,279.0,11.68,14.99,,47.59359,-54.27349
2018-04-10 14:00:00+00:00,287.0,295.0,12.61,15.97,,47.59359,-54.27349
2018-04-10 14:10:00+00:00,287.0,286.0,11.85,14.0,,47.59359,-54.27349
2018-04-10 14:20:00+00:00,275.0,279.0,11.47,12.45,,47.59359,-54.27349
2018-04-10 14:30:00+00:00,294.0,296.0,12.33,14.48,,47.59359,-54.27349
2018-04-10 14:40:00+00:00,272.0,274.0,11.37,13.01,,47.59359,-54.27349
2018-04-10 14:50:00+00:00,285.0,288.0,12.08,13.38,,47.59359,-54.27349
2018-04-10 15:00:00+00:00,275.0,277.0,13.84,16.09,,47.59359,-54.27349
2018-04-10 15:10:00+00:00,276.0,279.0,10.45,11.66,,47.59359,-54.27349
2018-04-10 15:20:00+00:00,293.0,294.0,12.65,14.59,,47.59359,-54.27349
2018-04-10 15:30:00+00:00,281.0,284.0,9.13,10.93,,47.59359,-54.27349
2018-04-10 15:40:00+00:00,283.0,286.0,12.28,15.93,,47.59359,-54.27349
2018-04-10 15:50:00+00:00,300.0,292.0,12.07,13.91,,47.59359,-54.27349
2018-04-10 16:00:00+00:00,289.0,294.0,10.77,12.42,,47.59359,-54.27349
2018-04-10 16:10:00+00:00,293.0,304.0,11.64,13.27,,47.59359,-54.27349
2018-04-10 16:20:00+00:00,270.0,271.0,12.14,13.68,,47.59359,-54.27349
2018-04-10 16:30:00+00:00,284.0,283.0,13.21,14.33,,47.59359,-54.27349
2018-04-10 16:40:00+00:00,293.0,302.0,10.67,13.06,,47.59359,-54.27349
2018-04-10 16:50:00+00:00,284.0,282.0,13.99,15.82,,47.59359,-54.27349
2018-04-10 17:00:00+00:00,280.0,285.0,10.99,12.59,,47.59359,-54.27349
2018-04-10 17:10:00+00:00,288.0,289.0,9.43,11.71,,47.59359,-54.27349
2018-04-10 17:20:00+00:00,282.0,282.0,12.01,14.23,,47.59359,-54.27349
2018-04-10 17:30:00+00:00,274.0,273.0,11.12,13.81,,47.59359,-54.27349
2018-04-10 17:40:00+00:00,280.0,283.0,13.17,15.01,,47.59359,-54.27349
2018-04-10 17:50:00+00:00,279.0,276.0,12.36,13.89,,47.59359,-54.27349
2018-04-10 18:00:00+00:00,284.0,294.0,9.89,11.08,,47.59359,-54.27349
2018-04-10 18:10:00+00:00,277.0,276.0,12.63,14.29,,47.59359,-54.27349
2018-04-10 18:20:00+00:00,271.0,275.0,11.56,13.41,,47.59359,-54.27349
2018-04-10 18:30:00+00:00,274.0,278.0,10.8,12.77,,47.59359,-54.27349
2018-04-10 18:40:00+00:00,280.0,272.0,10.42,11.65,,47.59359,-54.27349
2018-04-10 18:50:00+00:00,270.0,273.0,11.46,12.99,,47.59359,-54.27349
2018-04-10 19:00:00+00:00,278.0,273.0,10.58,13.05,,47.59359,-54.27349
2018-04-10 19:10:00+00:00,286.0,292.0,10.17,12.21,,47.59359,-54.27349
2018-04-10 19:20:00+00:00,281.0,279.0,9.93,11.69,,47.59359,-54.27349
2018-04-10 19:30:00+00:00,281.0,279.0,10.21,12.01,,47.59359,-54.27349
2018-04-10 19:40:00+00:00,272.0,273.0,11.11,12.82,,47.59359,-54.27349
2018-04-10 19:50:00+00:00,272.0,276.0,11.27,13.48,,47.59359,-54.27349
2018-04-10 20:00:00+00:00,280.0,274.0,11.14,12.62,,47.59359,-54.27349
2018-04-10 20:10:00+00:00,287.0,284.0,10.9,12.59,,47.59359,-54.27349
2018-04-10 20:20:00+00:00,278.0,281.0,10.92,12.97,,47.59359,-54.27349
2018-04-10 20:30:00+00:00,278.0,280.0,10.02,11.45,,47.59359,-54.27349
2018-04-10 20:40:00+00:00,279.0,278.0,9.38,11.89,,47.59359,-54.27349
2018-04-10 20:50:00+00:00,283.0,282.0,8.18,9.38,,47.59359,-54.27349
2018-04-10 21:00:00+00:00,287.0,282.0,9.43,10.67,,47.59359,-54.27349
2018-04-10 21:10:00+00:00,277.0,279.0,10.0,10.76,,47.59359,-54.27349
2018-04-10 21:20:00+00:00,278.0,277.0,10.53,11.37,,47.59359,-54.27349
2018-04-10 21:30:00+00:00,284.0,292.0,8.59,9.51,,47.59359,-54.27349
2018-04-10 21:40:00+00:00,278.0,272.0,7.74,8.86,,47.59359,-54.27349
2018-04-10 21:50:00+00:00,278.0,286.0,9.76,12.47,,47.59359,-54.27349
2018-04-10 22:00:00+00:00,281.0,273.0,8.79,10.09,,47.59359,-54.27349
2018-04-10 22:10:00+00:00,283.0,282.0,7.37,8.52,,47.59359,-54.27349
2018-04-10 22:20:00+00:00,285.0,284.0,7.59,8.85,,47.59359,-54.27349
2018-04-10 22:30:00+00:00,266.0,262.0,7.13,8.73,,47.59359,-54.27349
2018-04-10 22:40:00+00:00,264.0,267.0,7.5,8.79,,47.59359,-54.27349
2018-04-10 22:50:00+00:00,271.0,273.0,7.54,8.31,,47.59359,-54.27349
2018-04-10 23:00:00+00:00,261.0,263.0,8.27,9.98,,47.59359,-54.27349
2018-04-10 23:10:00+00:00,257.0,254.0,8.39,9.82,,47.59359,-54.27349
2018-04-10 23:20:00+00:00,264.0,270.0,7.61,8.89,,47.59359,-54.27349
2018-04-10 23:30:00+00:00,254.0,248.0,7.7,8.9,,47.59359,-54.27349
2018-04-10 23:40:00+00:00,252.0,248.0,8.6,9.48,,47.59359,-54.27349
2018-04-10 23:50:00+00:00,260.0,259.0,8.49,9.07,,47.59359,-54.27349
